SKYNET 5B

Last updated on Oct. 23, 2020, 5:56 a.m. UTC

1 32294U 07056B   20296.83077426  .00000127  00000-0  00000-0 0  9994
2 32294   0.0814  36.1707 0004216 178.4677 141.2495  1.00271973 47504
UTC
Height (km)
Latitude
Longitude
Inclination
Orbital Period
UTC large
Height (km)
Speed (km/s)
/
Latitude / Longitude
Inclination (degrees)
Orbital Period (minutes)
Azimuth
Elevation
Range (km)
Doppler Factor
iOS Compass Heading
iOS Angle

Next 30 passes for location: Hong Kong

Rise time Rise Azimuth (degrees) Set time Set Azimuth (degrees) Duration Max altitude (degrees)

No matching passes for this satellites